Find Starlink 4133

NORAD ID: 53253 Int'l Des: 2022-086 Owner: SPXS Country: US Constellation: starlink operational
LEOCIRCULAR

Live Position

Loading 3D Globe...

About Starlink 4133

Description loading...

Upcoming Passes

Passes for default location (London). Set your location on the main map for personalized predictions.

Altitude History

Loading altitude history...

Two-Line Element Set

1 53253U 22086M 26121.55818300 -.00002289 00000-0 -12585-3 0 9995
2 53253 53.2175 316.7850 0001893 96.6816 263.4392 15.08820858209049
Epoch: May 1, 2026 • Age: 6 hours

Current Status

Altitude 540.2 km
Velocity 7.59 km/s
Sub-Earth Point 5.00°N, 162.82°E
Launch Date Jul 24, 2022
Age 3.7 years
Type internet

Technical Details

Classification Payload
Mass 297.00 kg
Dry Mass 275.00 kg
Total Mass 297.00 kg
Length 0.20 m
Diameter 2.80 m
Span 9.00 m
Shape Box + pan
Manufacturer SPXS
Bus Type Starlink
Phase Status In Orbit
Owner/State SPXS/US

Most Searched